CW3161 Weather Reports


Display with metric or nautical units.
time (UTC)temp
F
wind
direction
speed
MPH
gust
MPH
rain 1hr
in
rain 24hr
in
rain mn
in
humidity
%
barometer
mb
20181022063039 60 63 0.0 1.0 0.00 0.00 0.00 28 1011.8
20181022061544 60 63 0.0 1.0 0.00 0.00 0.00 27 1012.0
20181022060042 60 63 0.0 3.0 0.00 0.00 0.00 27 1012.0
20181022054546 61 63 0.0 0.0 0.00 0.00 0.00 26 1011.9
20181022053031 61 61 0.0 1.0 0.00 0.00 0.00 26 1011.8
20181022051538 61 265 0.0 0.0 0.00 0.00 0.00 26 1011.8
20181022050026 62 265 0.0 1.0 0.00 0.00 0.00 25 1011.7
20181022044543 63 265 0.0 0.0 0.00 0.00 0.00 24 1011.7
20181022043040 64 265 0.0 0.0 0.00 0.00 0.00 24 1011.6
20181022041529 63 265 0.0 0.0 0.00 0.00 0.00 24 1011.4
20181022040102 64 265 0.0 0.0 0.00 0.00 0.00 23 1011.4
20181022034532 64 265 0.0 0.0 0.00 0.00 0.00 24 1011.5
20181022033040 64 265 0.0 0.0 0.00 0.00 0.00 23 1011.5
20181022031523 65 265 0.0 0.0 0.00 0.00 0.00 22 1011.6
20181022030034 66 265 0.0 0.0 0.00 0.00 0.00 22 1011.6
20181022024525 66 265 0.0 0.0 0.00 0.00 0.00 23 1011.5
20181022023023 66 265 0.0 0.0 0.00 0.00 0.00 22 1011.4
20181022021540 68 265 0.0 0.0 0.00 0.00 0.00 22 1011.3
20181022020021 69 265 0.0 0.0 0.00 0.00 0.00 21 1011.1
20181022014535 70 265 0.0 5.0 0.00 0.00 0.00 20 1011.1
20181022013016 70 263 0.0 3.0 0.00 0.00 0.00 19 1011.0
20181022011538 72 262 1.0 6.0 0.00 0.00 0.00 17 1011.0
20181022010037 74 260 2.0 10.0 0.00 0.00 0.00 15 1010.9
20181022004522 74 267 3.0 10.0 0.00 0.00 0.00 14 1010.9
20181022003117 75 248 4.0 11.0 0.00 0.00 0.00 13 1010.9
20181021234535 77 276 3.0 11.0 0.00 0.00 0.00 12 1011.0
20181021233014 77 250 6.0 12.0 0.00 0.00 0.00 12 1011.0
20181021231524 78 240 4.0 12.0 0.00 0.00 0.00 12 1011.1
20181021230013 78 263 3.0 18.0 0.00 0.00 0.00 12 1011.0
20181021224553 79 265 5.0 14.0 0.00 0.00 0.00 12 1011.0
20181021223031 78 254 5.0 20.0 0.00 0.00 0.00 12 1011.1
20181021221515 79 248 5.0 17.0 0.00 0.00 0.00 12 1011.0
20181021220014 79 269 8.0 16.0 0.00 0.00 0.00 12 1011.0
20181021214519 78 276 13.0 20.0 0.00 0.00 0.00 12 1011.0
20181021213025 79 216 7.0 15.0 0.00 0.00 0.00 12 1011.0
20181021211510 79 242 7.0 17.0 0.00 0.00 0.00 11 1011.2
20181021210141 80 233 6.0 12.0 0.00 0.00 0.00 12 1011.3
20181021204640 79 236 9.0 16.0 0.00 0.00 0.00 13 1011.3
20181021203138 79 235 8.0 15.0 0.00 0.00 0.00 13 1011.6
20181021201646 78 267 9.0 16.0 0.00 0.00 0.00 12 1011.9
20181021200143 79 244 6.0 16.0 0.00 0.00 0.00 12 1011.8
20181021194705 78 251 11.0 17.0 0.00 0.00 0.00 12 1012.1
20181021193142 79 252 7.0 15.0 0.00 0.00 0.00 11 1012.2
20181021191618 79 204 7.0 12.0 0.00 0.00 0.00 10 1012.4
20181021190246 79 266 7.0 15.0 0.00 0.00 0.00 10 1012.6
20181021184634 79 296 1.0 7.0 0.00 0.00 0.00 10 1012.7
20181021183137 78 273 0.0 9.0 0.00 0.00 0.00 11 1012.8
20181021181635 76 232 0.0 8.0 0.00 0.00 0.00 14 1012.9
20181021180114 77 152 0.0 0.0 0.00 0.00 0.00 14 1013.0
20181021174609 76 120 0.0 2.0 0.00 0.00 0.00 15 1013.2
20181021173036 74 120 0.0 1.0 0.00 0.00 0.00 15 1013.4
20181021171605 71 121 0.0 4.0 0.00 0.00 0.00 17 1013.6
20181021170325 69 93 0.0 5.0 0.00 0.00 0.00 17 1013.6
20181021164514 68 75 0.0 3.0 0.00 0.00 0.00 18 1013.9
20181021163018 66 83 0.0 3.0 0.00 0.00 0.00 19 1013.9
20181021160112 61 57 0.0 5.0 0.00 0.00 0.00 22 1013.9
20181021154618 60 84 0.0 0.0 0.00 0.00 0.00 22 1013.9
20181021153104 59 84 0.0 0.0 0.00 0.00 0.00 22 1013.9
20181021151643 58 59 0.0 0.0 0.00 0.00 0.00 22 1013.8
20181021150135 57 71 0.0 5.0 0.00 0.00 0.00 23 1013.5
20181021144615 56 74 0.0 0.0 0.00 0.00 0.00 24 1013.4
20181021143149 55 74 0.0 0.0 0.00 0.00 0.00 24 1013.3
20181021141601 55 74 0.0 0.0 0.00 0.00 0.00 24 1013.3
20181021140119 56 74 0.0 0.0 0.00 0.00 0.00 24 1013.4
20181021134614 56 57 0.0 0.0 0.00 0.00 0.00 24 1013.3
20181021133139 56 57 0.0 1.0 0.00 0.00 0.00 24 1013.4
20181021131555 56 28 0.0 8.0 0.00 0.00 0.00 24 1013.4
20181021130131 56 80 0.0 0.0 0.00 0.00 0.00 24 1013.4
20181021124603 55 78 0.0 0.0 0.00 0.00 0.00 26 1013.6
20181021123053 55 79 0.0 3.0 0.00 0.00 0.00 26 1013.7
20181021121614 55 74 0.0 2.0 0.00 0.00 0.00 26 1013.5
20181021120122 56 76 0.0 0.0 0.00 0.00 0.00 25 1013.6
20181021114554 56 76 0.0 0.0 0.00 0.00 0.00 26 1013.6
20181021113127 56 76 0.0 0.0 0.00 0.00 0.00 26 1013.6
20181021111557 56 74 0.0 3.0 0.00 0.00 0.00 26 1013.6
20181021110036 56 74 0.0 0.0 0.00 0.00 0.00 26 1013.7
20181021104549 56 74 0.0 0.0 0.00 0.00 0.00 26 1013.8
20181021103056 56 72 0.0 1.0 0.00 0.00 0.00 27 1013.9
20181021101632 56 91 0.0 0.0 0.00 0.00 0.00 26 1014.0
20181021100104 56 91 0.0 1.0 0.00 0.00 0.00 26 1014.1
20181021094541 56 95 0.0 0.0 0.00 0.00 0.00 26 1014.1
20181021093102 57 125 0.0 0.0 0.00 0.00 0.00 26 1014.2
20181021091553 57 113 0.0 0.0 0.00 0.00 0.00 26 1014.1
20181021090042 57 75 0.0 0.0 0.00 0.00 0.00 26 1014.1
20181021084551 57 75 0.0 1.0 0.00 0.00 0.00 26 1014.1
20181021083100 57 75 0.0 1.0 0.00 0.00 0.00 26 1014.2
20181021081533 58 71 0.0 0.0 0.00 0.00 0.00 26 1014.1
20181021080026 58 71 0.0 0.0 0.00 0.00 0.00 26 1014.1
20181021074532 58 71 0.0 0.0 0.00 0.00 0.00 27 1014.2
20181021073051 58 71 0.0 2.0 0.00 0.00 0.00 27 1014.2
20181021071546 58 71 0.0 0.0 0.00 0.00 0.00 27 1014.2
20181021070058 58 71 0.0 3.0 0.00 0.00 0.00 27 1014.3
20181021064531 58 72 0.0 0.0 0.00 0.00 0.00 28 1014.3